Location: Maccacari
(45.1333°N, 11.1333°E)
Time: 08:39:15
(UTC+00:00)

Cosmos 2227 - Pass Details

Date: 18 September 2020
Orbit: 836 x 859 km, 71.0° (Epoch: 29 October)

Event Time Altitude Azimuth Distance (km) Brightness Sun altitude
Rises 17:56:38 0° 201° (SSW) 3,418 7.5 -7.2°
Reaches altitude 10° 17:59:05 10° 201° (SSW) 2,485 6.8 -7.7°
Maximum altitude 18:04:48 83° 114° (ESE) 867 4.2 -8.7°
Drops below altitude 10° 18:10:32 10° 27° (NNE) 2,489 6.5 -9.7°
Sets 18:12:59 0° 27° (NNE) 3,425 7.2 -10.1°
